Home > Weather > Ingolstadt > Past weeks

Flag for Germany Past Weather in Ingolstadt, Bavaria, Germany — Yesterday and Last 2 Weeks

Now
77 °F

Warm.


Feels Like: 79 °F
Forecast: 56 / 64 °F
Wind: 9 mph from Northeast

Location: Ingolstadt Airport

Current Time: May 29, 2016 at 5:32:29 PM

Latest Report: May 29, 2016 at 4:20 PM


Visibility: 4 mi

Pressure: 29.62 "Hg

Humidity: 51%

Dew Point: 57 °F

Location of IngolstadtLocation

Past Weather in Ingolstadt — Graph

°F

Ingolstadt Temperature Yesterday

Maximum temperature yesterday: 77 °F (at 4:20 PM)
Minimum temperature yesterday: 55 °F (at 4:20 AM)
Average temperature yesterday: 66 °F

High & Low Weather Summary for the Past Weeks

 TemperatureHumidityPressure
High82 °F (May 22, 3:20 PM)100% (May 16, 11:20 PM)30.15 "Hg (May 16, 11:20 PM)
Low36 °F (May 18, 4:20 AM)32% (May 22, 5:20 PM)29.65 "Hg (May 29, 2:20 PM)
Average56 °F76%29.96 "Hg
* Reported May 14 3:20 PM — May 29 3:20 PM, Ingolstadt, Weather by CustomWeather, © 2016

Note: Actual official high and low records may vary slightly from our data, if they occured in-between our weather recording intervals... More about our weather records

Advertising

Ingolstadt Weather History for the Previous 24 Hours

Scroll right to see more
 ConditionsComfort  
Time TempWeatherWind HumidityBarometerVisibility
3:20 PM
Sun, May 29
79 °FWarm.2 mph54%29.65 "Hg4 mi
2:20 PM73 °FMild.5 mph69%29.65 "Hg4 mi
1:20 PM73 °FMild.2 mph65%29.68 "Hg4 mi
12:20 PM70 °FMild.3 mph73%29.71 "Hg4 mi
11:20 AM66 °FMild.6 mph83%29.71 "Hg3 mi
10:20 AM64 °FMild.3 mph88%29.74 "Hg3 mi
9:20 AM63 °FMild.3 mph88%29.74 "Hg3 mi
8:20 AM61 °FCool.1 mph94%29.77 "Hg4 mi
7:20 AM59 °FCool.3 mph94%29.77 "Hg4 mi
6:20 AM59 °FCool.2 mph94%29.77 "Hg4 mi
5:20 AM59 °FCool.5 mph94%29.74 "Hg4 mi
4:20 AM59 °FCool.3 mph94%29.74 "Hg4 mi
3:20 AM59 °FCool.5 mph88%29.74 "Hg4 mi
2:20 AM59 °FCool.2 mph94%29.77 "Hg4 mi
1:20 AM61 °FCool.5 mph88%29.80 "Hg4 mi
12:20 AM61 °FCool.2 mph94%29.80 "Hg4 mi
11:20 PM
Sat, May 28
64 °FMild.2 mph83%29.80 "Hg4 mi
10:20 PM66 °FMild.5 mph73%29.83 "Hg4 mi
9:20 PM68 °FMild.6 mph69%29.83 "Hg4 mi
8:20 PM72 °FMild.5 mph65%29.83 "Hg4 mi
7:20 PM73 °FMild.7 mph61%29.83 "Hg4 mi
6:20 PM75 °FMild.2 mph50%29.83 "Hg4 mi
5:20 PM77 °FWarm.3 mph47%29.86 "Hg4 mi
Weather by CustomWeather, © 2016

See weather overviewHow to use our weather pages